N54120 KMEM-KMEM

Flight info

Callsign N54120
Flight time 0h 5m
Altitude VFR
Route PATTERN
Aircraft C172/L-DOV/C

Departure

Time 2026-05-04 21:54
Airport Memphis International Airport (KMEM)

Arrival

Time 2026-05-04 22:00
Airport Memphis International Airport (KMEM)
Time Latitude Longitude Altitude Speed Heading
2026-05-04 21:47 35.03256 -89.96756 298 ft 0 kts 321°
2026-05-04 21:49 35.03289 -89.96793 298 ft 9 kts 351°
2026-05-04 21:49 35.03296 -89.96794 298 ft 0 kts 358°
2026-05-04 21:50 35.03345 -89.96791 299 ft 19 kts
2026-05-04 21:50 35.03416 -89.96840 301 ft 9 kts 317°
2026-05-04 21:50 35.03475 -89.96853 302 ft 11 kts
2026-05-04 21:50 35.03573 -89.96849 303 ft 17 kts
2026-05-04 21:51 35.03718 -89.96853 305 ft 25 kts 355°
2026-05-04 21:51 35.03805 -89.96994 305 ft 21 kts 262°
2026-05-04 21:51 35.03886 -89.97091 304 ft 19 kts 358°
2026-05-04 21:51 35.04049 -89.97094 305 ft 28 kts 359°
2026-05-04 21:52 35.04269 -89.97099 306 ft 35 kts
2026-05-04 21:52 35.04514 -89.97056 310 ft 36 kts 357°
2026-05-04 21:52 35.04756 -89.97063 315 ft 33 kts 359°
2026-05-04 21:52 35.04934 -89.97070 318 ft 6 kts 319°
2026-05-04 21:53 35.04901 -89.97091 319 ft 13 kts 205°
2026-05-04 21:53 35.04872 -89.97215 322 ft 19 kts 266°
2026-05-04 21:53 35.04761 -89.97296 318 ft 31 kts 180°
2026-05-04 21:53 35.04398 -89.97284 352 ft 66 kts 189°
2026-05-04 21:54 35.03899 -89.97295 512 ft 75 kts 187°
2026-05-04 21:54 35.03344 -89.97254 708 ft 82 kts 181°
2026-05-04 21:54 35.02790 -89.97180 957 ft 82 kts 180°
2026-05-04 21:54 35.02246 -89.96959 1030 ft 84 kts 156°
2026-05-04 21:55 35.02058 -89.96253 965 ft 99 kts 91°
2026-05-04 21:55 35.02148 -89.95416 1025 ft 98 kts 88°
2026-05-04 21:55 35.02450 -89.94676 1056 ft 105 kts 40°
2026-05-04 21:55 35.03020 -89.94173 1062 ft 94 kts 24°
2026-05-04 21:56 35.03259 -89.94123 1026 ft 85 kts 355°
2026-05-04 21:57 35.03679 -89.94086 824 ft 95 kts 355°
2026-05-04 21:57 35.04350 -89.93974 836 ft 94 kts 357°
2026-05-04 21:57 35.04973 -89.93978 1080 ft 93 kts 354°
2026-05-04 21:57 35.05625 -89.94016 1249 ft 94 kts 351°
2026-05-04 21:58 35.06172 -89.94341 1400 ft 84 kts 289°
2026-05-04 21:58 35.06287 -89.95012 1279 ft 84 kts 266°
2026-05-04 21:58 35.06329 -89.95710 1135 ft 80 kts 266°
2026-05-04 21:58 35.06338 -89.96361 957 ft 70 kts 262°
2026-05-04 21:59 35.06254 -89.96895 793 ft 59 kts 237°
2026-05-04 21:59 35.05908 -89.97155 699 ft 61 kts 211°
2026-05-04 21:59 35.05485 -89.97273 538 ft 62 kts 197°
2026-05-04 21:59 35.05214 -89.97288 432 ft 56 kts 191°
2026-05-04 22:00 35.04835 -89.97291 356 ft 56 kts 191°
2026-05-04 22:00 35.04568 -89.97286 315 ft 11 kts 181°
2026-05-04 22:00 35.04346 -89.97296 312 ft 52 kts 180°
2026-05-04 22:00 35.04072 -89.97267 380 ft 64 kts 181°
2026-05-04 22:01 35.03612 -89.97220 544 ft 71 kts 192°
2026-05-04 22:01 35.03097 -89.97264 749 ft 74 kts 186°
2026-05-04 22:01 35.02608 -89.97265 1051 ft 68 kts 185°
2026-05-04 22:01 35.02132 -89.97086 1069 ft 83 kts 146°
2026-05-04 22:02 35.01991 -89.96344 1060 ft 101 kts 92°
2026-05-04 22:02 35.02120 -89.95446 1046 ft 112 kts 85°
2026-05-04 22:02 35.02519 -89.94608 1080 ft 120 kts 32°
2026-05-04 22:02 35.03313 -89.94458 1102 ft 118 kts 353°
2026-05-04 22:03 35.04125 -89.94462 1179 ft 116 kts 353°
2026-05-04 22:03 35.04933 -89.94500 1150 ft 119 kts 352°
2026-05-04 22:03 35.05724 -89.94524 1086 ft 105 kts 356°
2026-05-04 22:03 35.06410 -89.94612 1016 ft 93 kts 321°
2026-05-04 22:04 35.06733 -89.95098 1050 ft 65 kts 270°
2026-05-04 22:04 35.06781 -89.95638 1023 ft 67 kts 262°
2026-05-04 22:04 35.06742 -89.96220 923 ft 68 kts 251°
2026-05-04 22:04 35.06539 -89.96669 822 ft 56 kts 223°
2026-05-04 22:05 35.06216 -89.96972 719 ft 59 kts 214°
2026-05-04 22:05 35.05846 -89.97161 658 ft 59 kts 202°
2026-05-04 22:05 35.05442 -89.97248 530 ft 58 kts 196°
2026-05-04 22:05 35.05054 -89.97292 406 ft 54 kts 186°
2026-05-04 22:06 35.04708 -89.97297 327 ft 39 kts 186°
2026-05-04 22:06 35.04361 -89.97290 331 ft 66 kts 177°
2026-05-04 22:06 35.03875 -89.97282 513 ft 72 kts 186°
2026-05-04 22:06 35.03399 -89.97079 737 ft 80 kts 132°
2026-05-04 22:07 35.03365 -89.96364 937 ft 98 kts 85°
2026-05-04 22:07 35.03522 -89.95528 1115 ft 101 kts 83°
2026-05-04 22:07 35.03830 -89.94765 1255 ft 110 kts 38°
2026-05-04 22:07 35.04641 -89.94543 1212 ft 127 kts 358°
2026-05-04 22:08 35.05509 -89.94499 1170 ft 122 kts
2026-05-04 22:08 35.06361 -89.94436 1089 ft 123 kts 360°
2026-05-04 22:08 35.07180 -89.94375 1067 ft 112 kts
2026-05-04 22:08 35.07899 -89.94354 1083 ft 97 kts 336°
2026-05-04 22:09 35.08209 -89.94833 1153 ft 59 kts 259°
2026-05-04 22:09 35.08302 -89.95333 1197 ft 60 kts 260°
2026-05-04 22:09 35.08337 -89.95839 1267 ft 61 kts 259°
2026-05-04 22:09 35.08300 -89.96312 1289 ft 57 kts 234°
2026-05-04 22:10 35.08053 -89.96696 1213 ft 61 kts 219°
2026-05-04 22:10 35.07698 -89.97026 1077 ft 66 kts 213°
2026-05-04 22:10 35.07250 -89.97217 1007 ft 70 kts 202°
2026-05-04 22:10 35.06778 -89.97303 833 ft 65 kts 191°
2026-05-04 22:11 35.06319 -89.97298 666 ft 68 kts 185°
2026-05-04 22:11 35.05844 -89.97294 589 ft 69 kts 186°
2026-05-04 22:11 35.05355 -89.97300 471 ft 68 kts 185°
2026-05-04 22:11 35.04920 -89.97296 345 ft 58 kts 185°
2026-05-04 22:12 35.04523 -89.97280 393 ft 60 kts 182°
2026-05-04 22:12 35.04064 -89.97253 502 ft 72 kts 169°
2026-05-04 22:12 35.03684 -89.96755 646 ft 94 kts 118°
2026-05-04 22:12 35.03746 -89.95901 908 ft 107 kts 89°
2026-05-04 22:13 35.03869 -89.94983 1088 ft 110 kts 88°
2026-05-04 22:13 35.04002 -89.94074 1262 ft 111 kts 77°
2026-05-04 22:13 35.04651 -89.93582 1147 ft 112 kts
2026-05-04 22:13 35.05404 -89.93550 1104 ft 103 kts 355°
2026-05-04 22:14 35.06119 -89.93518 1063 ft 101 kts 360°
2026-05-04 22:14 35.06808 -89.93468 1052 ft 100 kts 355°
2026-05-04 22:14 35.07491 -89.93451 1112 ft 96 kts 355°
2026-05-04 22:14 35.07995 -89.93719 1202 ft 74 kts 268°
2026-05-04 22:15 35.07895 -89.94343 1225 ft 76 kts 246°
2026-05-04 22:15 35.07749 -89.94979 1263 ft 78 kts 238°
2026-05-04 22:15 35.07537 -89.95588 1296 ft 82 kts 237°
2026-05-04 22:15 35.07225 -89.96139 1256 ft 76 kts 227°
2026-05-04 22:16 35.06822 -89.96563 1055 ft 71 kts 218°
2026-05-04 22:16 35.06453 -89.96773 913 ft 54 kts 208°
2026-05-04 22:16 35.06087 -89.96921 745 ft 57 kts 204°
2026-05-04 22:16 35.05680 -89.97067 650 ft 63 kts 205°
2026-05-04 22:17 35.05252 -89.97241 492 ft 67 kts 199°
2026-05-04 22:17 35.04814 -89.97288 335 ft 59 kts 185°
2026-05-04 22:17 35.04482 -89.97289 318 ft 53 kts 179°
2026-05-04 22:17 35.04056 -89.97257 438 ft 67 kts 180°
2026-05-04 22:18 35.03813 -89.96729 677 ft 96 kts 93°
2026-05-04 22:18 35.03963 -89.95879 910 ft 104 kts 92°
2026-05-04 22:18 35.04161 -89.95016 1084 ft 107 kts 69°
2026-05-04 22:18 35.04783 -89.94604 1171 ft 108 kts
2026-05-04 22:19 35.05562 -89.94484 1215 ft 116 kts 360°
2026-05-04 22:19 35.06376 -89.94496 1225 ft 112 kts 332°
2026-05-04 22:19 35.06616 -89.95102 1217 ft 76 kts 265°
2026-05-04 22:19 35.06635 -89.95761 1088 ft 78 kts 264°
2026-05-04 22:20 35.06622 -89.96415 1034 ft 70 kts 260°
2026-05-04 22:20 35.06535 -89.96914 930 ft 57 kts 229°
2026-05-04 22:20 35.06159 -89.97174 699 ft 70 kts 204°
2026-05-04 22:20 35.05671 -89.97287 598 ft 73 kts 192°
2026-05-04 22:21 35.05169 -89.97298 460 ft 66 kts 185°
2026-05-04 22:21 35.04772 -89.97290 321 ft 48 kts 187°
2026-05-04 22:21 35.04483 -89.97291 317 ft 53 kts 181°
2026-05-04 22:21 35.04056 -89.97277 449 ft 67 kts 187°
2026-05-04 22:22 35.03573 -89.97295 658 ft 73 kts 190°
2026-05-04 22:22 35.03049 -89.97318 877 ft 78 kts 183°
2026-05-04 22:22 35.02509 -89.97304 1121 ft 77 kts 184°
2026-05-04 22:22 35.01971 -89.97217 1336 ft 78 kts 172°
2026-05-04 22:23 35.01713 -89.96575 1512 ft 109 kts 94°
2026-05-04 22:23 35.01798 -89.95544 1074 ft 135 kts 102°
2026-05-04 22:23 35.01930 -89.94557 1089 ft 118 kts 55°
2026-05-04 22:23 35.02633 -89.94211 1051 ft 109 kts 357°
2026-05-04 22:24 35.03080 -89.94155 1069 ft 105 kts
2026-05-04 22:24 35.03789 -89.94028 1058 ft 109 kts 358°
2026-05-04 22:24 35.04490 -89.94113 1067 ft 96 kts 342°
2026-05-04 22:24 35.05030 -89.94483 1020 ft 82 kts 292°
2026-05-04 22:25 35.05160 -89.95126 928 ft 79 kts 266°
2026-05-04 22:25 35.05176 -89.95816 886 ft 81 kts 265°
2026-05-04 22:25 35.05194 -89.96421 790 ft 64 kts 266°
2026-05-04 22:25 35.05183 -89.96963 645 ft 63 kts 252°
2026-05-04 22:26 35.04875 -89.97281 440 ft 58 kts 191°
2026-05-04 22:26 35.04498 -89.97287 314 ft 43 kts 183°
2026-05-04 22:26 35.04173 -89.97283 317 ft 62 kts 182°
2026-05-04 22:26 35.03678 -89.97273 444 ft 77 kts 183°
2026-05-04 22:27 35.03534 -89.97270 467 ft 81 kts 184°
2026-05-04 22:27 35.02963 -89.97237 675 ft 86 kts 177°
2026-05-04 22:27 35.02367 -89.97185 921 ft 84 kts 176°
2026-05-04 22:27 35.01802 -89.97019 1134 ft 90 kts 145°
2026-05-04 22:28 35.01661 -89.96183 1144 ft 115 kts 97°
2026-05-04 22:28 35.01740 -89.95198 1077 ft 117 kts 90°
2026-05-04 22:28 35.01937 -89.94259 1064 ft 117 kts 60°
2026-05-04 22:28 35.02673 -89.93922 1075 ft 118 kts 355°
2026-05-04 22:29 35.03450 -89.94037 1150 ft 109 kts 339°
2026-05-04 22:29 35.04179 -89.94309 1148 ft 111 kts 336°
2026-05-04 22:29 35.04887 -89.94692 1159 ft 110 kts 324°
2026-05-04 22:29 35.05371 -89.95298 1066 ft 88 kts 280°
2026-05-04 22:30 35.05473 -89.95948 924 ft 71 kts 261°
2026-05-04 22:30 35.05305 -89.96484 755 ft 68 kts 238°
2026-05-04 22:30 35.05043 -89.97004 540 ft 76 kts 233°
2026-05-04 22:30 35.04636 -89.97281 333 ft 67 kts 185°
2026-05-04 22:31 35.04250 -89.97276 310 ft 43 kts 184°
2026-05-04 22:31 35.03926 -89.97276 324 ft 60 kts 179°
2026-05-04 22:31 35.03460 -89.97260 483 ft 71 kts 186°
2026-05-04 22:31 35.02947 -89.97252 701 ft 76 kts 181°
2026-05-04 22:32 35.02428 -89.97189 998 ft 72 kts 162°
2026-05-04 22:32 35.02275 -89.96741 1096 ft 102 kts 92°
2026-05-04 22:33 35.02275 -89.96739 1096 ft 102 kts 92°
2026-05-04 22:33 35.02463 -89.95790 1114 ft 121 kts 81°
2026-05-04 22:34 35.02888 -89.94913 1157 ft 120 kts 30°
2026-05-04 22:34 35.03648 -89.94784 1173 ft 106 kts 343°
2026-05-04 22:34 35.04330 -89.95087 1167 ft 105 kts 323°
2026-05-04 22:34 35.04796 -89.95645 1034 ft 87 kts 292°
2026-05-04 22:35 35.04912 -89.96348 832 ft 86 kts 262°
2026-05-04 22:35 35.04744 -89.96995 559 ft 80 kts 226°
2026-05-04 22:35 35.04308 -89.97251 388 ft 68 kts 189°
2026-05-04 22:35 35.03864 -89.97263 315 ft 60 kts 184°
2026-05-04 22:36 35.03431 -89.97259 313 ft 65 kts 184°
2026-05-04 22:36 35.02987 -89.97251 299 ft 57 kts 184°
2026-05-04 22:36 35.02650 -89.97248 288 ft 37 kts 168°
2026-05-04 22:36 35.02560 -89.97122 288 ft 0 kts 77°
2026-05-04 22:37 35.02564 -89.97109 288 ft 10 kts 66°
2026-05-04 22:37 35.02670 -89.97028 290 ft 23 kts 360°
2026-05-04 22:37 35.02830 -89.97049 291 ft 23 kts 350°
2026-05-04 22:37 35.02930 -89.97029 294 ft 11 kts 101°
2026-05-04 22:38 35.02878 -89.96927 292 ft 20 kts 133°
2026-05-04 22:38 35.02885 -89.96854 293 ft 11 kts 359°
2026-05-04 22:38 35.02917 -89.96811 297 ft 0 kts 88°